Flag for Pakistan Weather past 2 weeks in Lahore, Pakistan

Now
75 °F

Broken clouds.


Feels Like: 77 °F
Forecast: 65 / 75 °F
Wind: 7 mph from East

Location: Lahore Airport

Current Time: Mar 31, 2015 at 4:56:42 PM

Latest Report: Mar 31, 2015 at 3:55 PM


Visibility: 3 mi

Pressure: 29.86 "Hg

Humidity: 69%

Dew point: 64 °F

Location of LahoreLocation

Historic Weather in Lahore — Graph

°F

Lahore temperature yesterday

Maximum temperature yesterday: 77 °F (at 3:25 PM)
Minimum temperature yesterday: 59 °F (at 4:59 AM)
Average temperature yesterday: 68 °F

Past Weeks' High & Low Weather Summary

 TemperatureHumidityPressure
High95 °F (Mar 28, 3:00 PM)100% (Mar 30, 1:55 AM)30.15 "Hg (Mar 30, 1:55 AM)
Low54 °F (Mar 17, 4:30 AM)23% (Mar 23, 3:25 PM)29.74 "Hg (Mar 28, 5:00 PM)
Average74 °F58%29.94 "Hg
* Reported Mar 16 3:25 PM — Mar 31 3:25 PM, Lahore, Weather by CustomWeather, © 2015

Note: Actual official high and low records may vary slightly from our data, if they occured in-between our weather recording intervals... More about our weather records

Advertising

Lahore weather history for previous 24 hours

 ConditionsComfort  
Time TempWeatherWind HumidityBarometerVisibility
3:25 PM
Tue, Mar 31
75 °FBroken clouds.8 mph69%29.86 "Hg3 mi
2:55 PM75 °FBroken clouds.9 mph69%29.86 "Hg3 mi
2:25 PM75 °FBroken clouds.8 mph65%29.89 "Hg3 mi
1:55 PM75 °FBroken clouds.8 mph65%29.89 "Hg3 mi
1:25 PM73 °FScattered clouds.8 mph69%29.89 "Hg3 mi
12:55 PM73 °FScattered clouds.9 mph69%29.92 "Hg3 mi
12:25 PM73 °FScattered clouds.6 mph69%29.95 "Hg3 mi
11:55 AM72 °FBroken clouds.7 mph73%29.95 "Hg3 mi
11:25 AM72 °FBroken clouds.7 mph78%29.95 "Hg3 mi
10:55 AM72 °FBroken clouds.7 mph78%29.98 "Hg3 mi
10:25 AM70 °FScattered clouds.6 mph73%29.98 "Hg3 mi
9:25 AM68 °FScattered clouds.5 mph73%29.98 "Hg3 mi
8:55 AM68 °FScattered clouds.7 mph73%29.95 "Hg3 mi
8:25 AM68 °FScattered clouds.7 mph73%29.95 "Hg2 mi
7:55 AM66 °FScattered clouds.5 mph73%29.92 "Hg2 mi
7:30 AM64 °FScattered clouds.5 mph78%29.92 "Hg2 mi
7:00 AM63 °FScattered clouds.5 mph83%29.92 "Hg2 mi
6:30 AM61 °FScattered clouds.No wind83%29.89 "Hg2 mi
6:00 AM61 °FSmoke.6 mph83%29.89 "Hg2 mi
5:30 AM61 °FPassing clouds.7 mph83%29.89 "Hg2 mi
5:00 AM61 °FPassing clouds.6 mph83%29.86 "Hg2 mi
4:30 AM61 °FPassing clouds.6 mph83%29.86 "Hg2 mi
4:00 AM61 °FPassing clouds.7 mph83%29.86 "Hg2 mi
3:00 AM61 °FPassing clouds.7 mph83%29.86 "Hg2 mi
2:30 AM63 °FPassing clouds.7 mph83%29.86 "Hg2 mi
2:00 AM63 °FPassing clouds.3 mph83%29.86 "Hg2 mi
1:30 AM63 °FPassing clouds.3 mph83%29.86 "Hg2 mi
1:00 AM63 °FPassing clouds.3 mph83%29.86 "Hg2 mi
12:30 AM64 °FPassing clouds.3 mph78%29.89 "Hg2 mi
12:00 AM64 °FPassing clouds.5 mph78%29.89 "Hg2 mi
11:30 PM
Mon, Mar 30
64 °FPassing clouds.7 mph78%29.89 "Hg2 mi
11:00 PM64 °FPassing clouds.No wind78%29.92 "Hg3 mi
10:30 PM64 °FPassing clouds.6 mph83%29.89 "Hg3 mi
9:30 PM66 °FPassing clouds.5 mph83%29.86 "Hg3 mi
9:00 PM66 °FPassing clouds.No wind83%29.86 "Hg3 mi
8:30 PM68 °FPassing clouds.5 mph78%29.86 "Hg3 mi
7:55 PM68 °FPassing clouds.7 mph78%29.83 "Hg3 mi
7:25 PM68 °FPassing clouds.8 mph78%29.83 "Hg3 mi
6:55 PM70 °FPassing clouds.12 mph73%29.83 "Hg3 mi
6:25 PM73 °FPassing clouds.7 mph69%29.80 "Hg3 mi
6:00 PM73 °FBroken clouds.7 mph69%29.80 "Hg3 mi
5:26 PM75 °FBroken clouds.6 mph65%29.80 "Hg3 mi
4:55 PM75 °FBroken clouds.5 mph65%29.80 "Hg3 mi
4:25 PM77 °FBroken clouds.No wind57%29.80 "Hg3 mi
Weather by CustomWeather, © 2015

See weather overviewHow to use our weather pages